Weather History for Big Delta, AK

Change the Weather History Date:

Wednesday, March 7, 2012

  Actual Average Record
Temperature  
Mean Temperature 17 °F -  
Max Temperature 26 °F 18 °F 43 °F (2013)
Min Temperature 6 °F 0 °F -26 °F (1999)
Degree Days  
Heating Degree Days 48    
Moisture  
Dew Point 3 °F    
Average Humidity 58    
Maximum Humidity 73    
Minimum Humidity 37    
Precipitation  
Precipitation 0.00 in - - ()
Sea Level Pressure  
Sea Level Pressure 29.89 in    
Wind  
Wind Speed 5 mph (SSE)    
Max Wind Speed 8 mph    
Max Gust Speed -    
Visibility 10 miles    
Events      
Averages and records for this station are not official NWS values.
T = Trace of Precipitation, MM = Missing Value Source: NWS Daily Summary

Daily Weather History Graph

Daily Weather History Graph

Search for Another Location

Airport:

Trip Planner

Search our weather history database for the weather conditions in past years. The results will help you decide how hot, cold, wet, or windy it might be!

Date:

Astronomy

Mar. 07, 2012 Rise Set
Actual Time 7:26 AM AKST 6:22 PM AKST
Civil Twilight 6:39 AM AKST 7:09 PM AKST
Nautical Twilight 5:44 AM AKST 8:04 PM AKST
Astronomical Twilight 4:46 AM AKST 9:03 PM AKST
Moon 6:22 PM AKST (3/7) 6:41 AM AKST (3/7)
Length of Visible Light 12h 29m
Length of Day
10h 55m
Full, 100% of the Moon is Illuminated
Mar 7
Full
Mar 8
Full
Mar 14
Last Quarter
Mar 22
New
Mar 30
First Quarter

Hourly Weather History & Observations

Time (AKST) Temp. Windchill Dew Point Humidity Pressure Visibility Wind Dir Wind Speed Gust Speed Precip Events Conditions
12:53 AM 12.9 °F 1.6 °F 3.9 °F 67% 29.81 in 10.0 mi East 8.1 mph - N/A   Overcast
1:53 AM 12.0 °F 2.7 °F 5.0 °F 73% 29.82 in 10.0 mi SE 5.8 mph - N/A   Overcast
2:53 AM 12.9 °F - 3.9 °F 67% 29.83 in 10.0 mi Calm Calm - N/A   Overcast
3:53 AM 10.9 °F 4.7 °F 3.9 °F 73% 29.83 in 10.0 mi ENE 3.5 mph - N/A   Overcast
4:53 AM 10.9 °F 2.9 °F 3.9 °F 73% 29.83 in 10.0 mi ESE 4.6 mph - N/A   Overcast
5:53 AM 10.9 °F 2.9 °F 3.9 °F 73% 29.83 in 10.0 mi East 4.6 mph - N/A   Overcast
6:53 AM 10.9 °F 1.4 °F 3.9 °F 73% 29.85 in 10.0 mi SE 5.8 mph - N/A   Mostly Cloudy
7:53 AM 10.9 °F 2.9 °F 3.0 °F 70% 29.86 in 10.0 mi SSE 4.6 mph - N/A   Mostly Cloudy
8:53 AM 10.9 °F 2.9 °F 3.0 °F 70% 29.88 in 10.0 mi SSE 4.6 mph - N/A   Mostly Cloudy
9:53 AM 14.0 °F - 3.9 °F 64% 29.89 in 10.0 mi Calm Calm - N/A   Mostly Cloudy
10:53 AM 17.1 °F - 3.9 °F 56% 29.90 in 10.0 mi Calm Calm - N/A   Mostly Cloudy
11:53 AM 19.0 °F 10.0 °F 6.1 °F 57% 29.90 in 10.0 mi NNW 6.9 mph - N/A   Overcast
12:53 PM 21.0 °F 16.2 °F 5.0 °F 50% 29.92 in 10.0 mi NE 3.5 mph - N/A   Overcast
1:53 PM 24.1 °F - 3.9 °F 42% 29.91 in 10.0 mi Calm Calm - N/A   Mostly Cloudy
2:53 PM 25.0 °F - 3.0 °F 39% 29.91 in 10.0 mi Calm Calm - N/A   Mostly Cloudy
3:53 PM 26.1 °F - 3.0 °F 37% 29.91 in 10.0 mi Calm Calm - N/A   Mostly Cloudy
4:53 PM 25.0 °F 18.1 °F 5.0 °F 43% 29.91 in 10.0 mi WSW 5.8 mph - N/A   Mostly Cloudy
5:53 PM 21.9 °F 15.7 °F 3.9 °F 46% 29.92 in 10.0 mi SW 4.6 mph - N/A   Scattered Clouds
6:53 PM 19.0 °F 10.0 °F 1.0 °F 46% 29.93 in 10.0 mi SSW 6.9 mph - N/A   Scattered Clouds
7:53 PM 14.0 °F 8.2 °F -0.9 °F 52% 29.94 in 10.0 mi WSW 3.5 mph - N/A   Scattered Clouds
8:53 PM 15.1 °F 5.2 °F -0.0 °F 51% 29.95 in 10.0 mi South 6.9 mph - N/A   Scattered Clouds
9:53 PM 10.9 °F 0.2 °F -2.0 °F 56% 29.95 in 10.0 mi South 6.9 mph - N/A   Clear
10:53 PM 8.1 °F -0.5 °F -4.0 °F 58% 29.95 in 10.0 mi South 4.6 mph - N/A   Clear
11:53 PM 6.1 °F -2.8 °F -4.0 °F 63% 29.95 in 10.0 mi SW 4.6 mph - N/A   Clear